Temperature
17 18 19 20 20 19 19 18 18 19 19 18 18 17 17 18 18 19 19 20 20 20 21 21 21 21 21 21 20 20 20 20 19 19 19 19 19 18 18 18 18 18 18 18
18 19 19 19 20 20 19 19 19 19 18 17 17 17 17 17 18 18 18 19 19 20 20 20 20 20 20 20 20 20 20 19 19 19 19 18 18 18 18 18 18 17 17 17
16 17 19 18 19 19 18 18 18 18 18 16 16 16 17 17 17 18 18 18 19 19 20 20 20 20 20 20 20 19 19 19 19 18 18 18 18 18 17 17 17 17 17 17
14 17 18 18 18 18 18 17 17 17 16 16 16 17 17 17 17 18 18 18 19 19 19 19 19 19 19 19 19 19 19 18 18 18 18 18 17 17 17 17 17 17 17 16
13 15 16 17 18 17 17 17 16 16 16 16 16 16 16 17 17 18 18 18 19 19 19 19 19 19 18 18 18 18 18 18 18 18 17 17 17 17 17 16 16 16 16 16
13 15 16 17 17 17 17 16 16 15 15 15 15 15 15 17 17 17 18 18 18 18 18 18 18 18 18 18 18 18 17 17 17 17 17 16 16 16 16 16 16 16 16 16
13 14 15 16 16 17 17 16 16 15 15 15 15 15 16 16 16 17 17 17 17 17 17 18 18 17 18 18 17 17 17 17 16 16 16 16 16 16 16 15 15 15 15 15
12 13 14 15 15 15 15 15 15 15 15 15 15 16 16 16 16 16 16 16 16 17 17 17 17 17 17 17 17 17 17 16 16 16 15 15 15 15 15 15 15 15 14 14
12 13 14 14 15 16 16 15 16 16 15 15 15 15 15 15 15 15 16 16 16 16 16 16 16 16 17 17 17 16 16 15 15 15 15 15 15 15 14 14 14 14 14 14
11 12 13 14 15 16 16 16 16 16 15 15 15 15 15 15 15 15 15 15 15 15 15 16 16 16 16 16 16 15 15 15 15 14 14 14 14 14 14 14 14 13 13 13
11 12 13 14 15 15 15 15 15 15 15 15 15 15 15 14 14 14 15 15 15 15 15 15 15 15 15 15 15 15 14 14 14 14 14 14 13 13 13 13 13 13 13 12
11 12 12 13 14 15 15 15 15 15 14 14 14 14 14 14 14 14 14 14 14 14 14 14 14 14 14 14 14 14 14 14 13 13 13 13 13 13 13 12 12 12 12 12
13 14 13 13 14 14 14 14 14 14 14 14 14 14 14 14 14 14 14 14 14 14 14 14 14 13 14 13 13 13 13 13 13 13 13 13 12 12 12 12 12 12 11 11
13 13 12 13 13 13 14 14 14 14 14 14 13 13 13 13 13 13 13 13 13 13 13 13 13 13 13 13 13 13 13 13 12 12 12 12 12 12 11 11 11 11 11 11
13 13 13 13 13 13 13 13 13 13 13 13 13 13 13 13 13 13 13 13 13 13 13 13 13 12 12 12 12 12 12 12 12 12 12 12 11 11 11 11 11 11 11 10
12 12 12 12 12 13 13 13 12 12 13 13 12 12 12 12 12 12 12 12 12 12 12 12 12 12 12 12 12 12 12 12 12 11 11 11 11 11 11 10 10 10 10 10
11 12 12 12 12 12 12 12 12 12 12 12 12 12 12 12 12 12 12 12 12 12 12 12 12 12 12 12 11 11 11 11 11 11 11 11 10 10 10 10 10 10 10 10
12 12 12 12 12 12 12 12 12 11 11 11 11 11 11 12 12 12 12 12 12 12 12 12 11 11 11 11 11 11 11 11 11 11 11 10 10 10 10 10 10 10 9 9
12 12 12 12 12 12 11 11 11 11 11 11 11 11 11 11 11 11 11 11 11 11 11 11 11 11 11 11 11 11 10 10 10 10 10 10 10 10 9 9 9 9 9 9
12 11 11 11 11 11 11 11 11 11 11 11 11 11 11 11 11 11 11 11 11 11 11 11 11 11 11 10 10 10 10 10 10 10 10 10 9 9 9 9 9 9 9 8
11 11 11 11 11 11 11 11 11 11 11 11 11 11 11 11 11 10 10 10 10 10 10 10 10 10 10 10 10 10 10 10 10 10 9 9 9 9 9 9 9 9 8 8
11 11 11 11 11 11 11 11 11 11 11 11 11 11 11 11 10 10 10 10 10 10 10 10 10 10 10 10 10 10 10 9 9 9 9 9 9 9 9 8 8 8 8 8
11 11 11 11 10 10 11 11 11 11 11 11 11 11 10 10 10 10 10 10 10 10 10 10 10 10 10 10 10 9 9 9 9 9 9 9 9 8 8 8 8 8 8 8
11 11 11 10 10 10 10 10 10 11 11 11 10 10 10 10 10 10 10 10 10 10 10 10 10 10 10 9 9 9 9 9 9 9 8 8 8 8 8 8 8 8 8 7
11 10 10 10 10 10 10 10 10 10 10 10 10 10 10 10 10 10 10 10 10 10 10 10 9 9 9 9 9 9 9 9 9 8 8 8 8 8 8 8 7 7 7 7
10 10 10 10 10 10 10 10 10 10 10 10 10 10 10 10 10 10 10 10 10 10 10 9 9 9 9 9 9 9 9 9 8 8 8 8 8 8 7 7 7 7 7 7
10 10 10 10 10 10 10 10 10 10 10 10 10 10 10 10 10 10 10 10 10 10 9 9 9 9 9 9 9 8 8 8 8 8 8 8 7 7 7 7 7 7 6 6
Wind_Speed
5 6 4 5 5 4 6 8 8 8 8 8 6 5 3 3 3 3 2 2 2 2 2 2 2 2 3 4 5 6 6 6 7 6 6 5 5 5 4 4 5 4 4 3
3 4 4 5 6 5 5 4 5 4 6 4 2 1 2 2 3 3 3 3 3 3 2 1 2 2 3 3 4 4 5 5 4 4 4 5 5 4 4 4 4 3 4 4
4 6 3 5 6 5 2 2 4 6 6 2 2 3 5 5 5 4 4 3 4 3 3 2 2 3 3 3 3 4 4 4 4 4 4 4 5 4 4 4 4 3 4 4
1 2 5 7 2 2 3 1 2 2 3 5 5 4 2 3 4 3 2 2 2 2 2 1 1 1 2 3 3 3 3 3 3 3 3 3 4 4 3 3 3 4 4 4
3 2 6 6 2 1 2 2 1 1 2 1 2 3 2 1 1 2 2 2 2 3 3 2 1 2 2 2 2 3 3 2 2 3 2 2 3 3 3 3 2 3 3 3
3 3 6 6 4 3 2 3 2 1 2 2 3 2 3 2 1 1 1 1 1 2 2 2 1 2 3 3 2 2 1 1 2 2 3 3 3 2 2 2 3 2 2 2
4 4 6 6 5 1 2 5 2 2 2 3 3 4 3 1 1 1 1 1 2 2 2 2 2 3 3 3 2 2 2 2 1 2 3 3 3 2 2 2 1 0 1 1
4 4 7 4 1 2 5 2 1 2 2 2 2 2 2 2 1 0 1 1 2 2 1 1 2 3 3 3 2 2 3 3 2 1 2 2 3 2 2 2 2 1 1 1
6 6 5 4 4 4 3 2 3 3 3 3 2 2 1 1 1 1 1 1 1 2 1 1 1 3 3 3 2 3 3 2 1 1 1 1 2 2 2 2 2 2 2 1
3 5 5 6 4 3 2 3 3 3 2 2 2 2 1 0 1 1 1 1 1 2 1 0 0 1 2 2 3 4 3 2 2 1 1 1 1 2 2 2 2 2 2 2
4 6 5 5 4 4 4 1 0 1 1 2 3 2 2 1 1 1 1 0 1 1 1 1 1 0 0 1 3 4 3 2 1 1 1 1 1 1 2 2 3 3 3 3
7 7 5 6 6 5 4 4 3 2 1 1 3 3 3 2 1 1 1 1 1 0 1 1 0 0 0 1 2 3 3 2 2 1 1 1 1 1 4 2 1 1 2 2
7 6 5 7 6 5 4 4 4 3 4 3 2 3 3 2 2 1 1 1 1 2 2 1 1 1 1 1 2 3 3 2 2 2 2 1 1 1 0 3 4 3 2 1
6 4 5 6 6 5 3 3 3 2 2 3 3 2 2 2 2 2 2 2 2 2 1 1 1 2 2 2 3 3 3 3 3 3 3 3 3 2 2 2 0 1 2 2
5 4 5 5 4 3 1 1 0 1 1 1 1 1 2 2 2 2 2 2 1 1 1 1 1 2 2 2 3 3 3 2 2 2 3 3 3 2 2 2 1 1 1 2
4 3 2 2 2 2 1 0 1 2 1 1 1 1 1 1 1 1 1 2 2 1 1 1 2 2 1 2 2 2 2 3 3 2 2 2 2 2 2 2 1 1 1 1
2 3 2 2 2 2 2 2 2 3 2 2 2 1 2 1 0 0 0 1 2 1 1 1 2 2 1 2 3 2 2 1 2 2 2 2 2 2 2 2 1 1 2 2
5 5 4 3 3 2 2 1 1 1 1 1 1 2 1 1 1 1 0 2 2 2 2 1 1 0 1 2 2 2 2 1 2 2 2 2 2 2 2 1 2 2 2 1
1 1 2 2 2 2 1 1 1 1 1 2 2 1 1 1 2 1 1 3 2 2 3 2 1 2 2 2 3 2 2 2 2 2 2 2 2 1 1 2 2 2 2 2
2 1 1 1 1 1 1 1 1 1 1 2 2 2 1 1 1 1 2 2 0 1 1 1 1 1 1 1 2 2 2 2 2 1 1 1 1 1 1 2 2 2 2 2
3 3 3 3 3 2 2 2 2 2 1 2 2 2 1 0 1 2 2 1 3 2 1 2 1 1 1 1 2 2 2 2 2 1 1 1 1 1 1 2 2 2 2 2
3 3 3 3 3 3 2 2 2 1 1 1 1 2 1 0 1 1 1 1 1 1 1 1 1 1 2 2 2 2 2 2 1 1 1 1 1 1 1 2 2 2 2 2
2 2 2 2 1 1 3 2 2 1 1 1 1 1 1 1 1 1 0 1 0 1 1 1 2 2 3 2 2 2 2 2 1 1 1 1 1 1 1 2 2 2 1 1
2 2 2 2 2 3 2 2 2 2 2 1 1 1 1 1 1 0 1 1 1 1 1 1 2 3 3 2 2 2 1 1 1 1 0 0 1 1 1 1 1 1 1 1
1 1 2 2 2 1 0 1 2 3 3 2 2 2 1 1 1 0 0 1 1 2 2 2 3 3 2 1 1 1 1 1 1 1 0 0 0 0 0 1 1 1 1 1
1 1 1 0 1 1 0 1 1 1 1 2 2 2 2 1 1 1 1 1 2 2 2 1 2 2 1 1 1 0 1 1 1 1 0 0 0 0 0 1 1 1 1 1
1 1 1 2 1 1 1 1 1 0 0 0 1 2 1 1 2 2 2 1 1 2 2 2 1 1 1 1 1 1 1 1 1 0 0 0 0 0 0 1 1 1 1 1
Wind_Direction
246 256 243 243 252 218 194 193 196 225 219 244 242 223 214 190 157 141 154 159 162 166 172 151 144 155 167 177 180 177 175 184 198 202 197 197 202 202 194 200 211 208 208 220
295 283 264 263 267 240 224 212 219 220 246 249 230 169 166 174 169 170 190 200 198 188 167 144 154 161 160 168 178 163 167 183 187 189 195 197 203 201 195 205 211 206 214 219
275 308 344 273 253 225 207 214 192 213 234 194 167 195 201 194 187 189 201 214 208 199 195 184 182 166 165 172 163 162 172 183 185 183 191 199 197 193 199 209 205 211 221 220
234 10 230 247 275 164 159 255 261 223 211 190 193 201 198 185 177 191 215 220 200 181 167 162 151 137 139 134 138 158 168 181 194 185 186 180 176 184 198 204 208 217 224 225
146 218 273 292 289 179 179 277 316 162 158 133 127 65 10 340 167 200 223 224 192 176 157 137 135 144 119 114 117 135 158 177 185 179 178 177 183 193 190 193 207 215 216 213
148 183 232 251 294 303 120 273 289 129 149 133 104 137 251 281 307 313 46 91 123 133 121 124 151 141 128 137 135 151 169 179 171 154 167 183 189 189 180 188 212 209 220 228
182 215 257 272 299 31 159 247 265 194 186 171 184 214 224 214 300 341 59 70 99 118 137 159 150 136 139 142 177 199 149 111 125 151 167 169 166 169 169 170 167 171 229 268
161 195 250 298 32 169 227 263 217 222 209 205 220 198 171 167 199 151 128 90 100 112 128 124 131 141 156 183 195 142 118 115 119 153 159 152 155 160 148 140 148 182 217 284
195 218 253 285 260 263 224 241 248 229 232 198 195 196 188 184 266 312 157 122 111 126 134 128 151 155 177 199 147 120 116 119 116 100 120 132 144 146 139 149 171 200 208 236
258 267 281 299 302 303 269 238 238 222 219 198 202 201 195 207 296 323 314 123 116 124 137 145 56 143 184 172 136 127 134 132 126 103 78 91 119 151 167 179 183 198 218 226
263 277 301 304 305 305 312 304 306 276 205 192 175 172 179 196 240 299 315 19 132 157 186 225 228 194 138 133 136 141 142 145 139 132 129 106 88 171 191 207 203 199 214 214
240 245 239 271 290 301 296 274 246 208 238 202 178 192 190 195 218 264 273 246 165 132 291 275 234 246 89 124 142 144 148 171 183 167 152 152 135 46 45 73 55 129 200 203
240 254 252 271 286 286 275 270 254 217 201 208 219 202 200 206 212 207 231 234 214 224 239 245 227 249 251 164 155 157 170 190 192 184 178 178 172 164 94 40 51 54 60 83
245 255 277 279 277 283 273 267 261 242 213 200 217 211 198 199 200 202 223 234 236 218 202 188 205 261 259 185 169 175 185 196 198 200 194 188 188 190 185 182 226 7 28 42
279 245 243 268 281 286 270 184 149 268 255 247 203 180 169 172 205 230 226 227 242 131 137 158 212 259 255 163 167 185 193 202 204 201 193 188 184 182 177 173 182 210 356 4
306 313 282 271 270 281 305 270 205 246 248 242 223 207 161 163 208 244 214 160 149 166 206 193 235 257 237 166 170 190 201 204 194 180 176 167 166 171 171 169 173 193 256 284
280 288 273 281 279 278 271 253 232 236 235 229 208 166 131 132 124 295 20 118 164 192 207 187 243 262 207 176 176 189 192 182 154 145 157 156 163 174 188 182 199 227 250 246
235 241 236 226 230 235 246 237 205 169 163 191 151 126 136 162 180 193 46 75 77 53 14 339 277 147 137 144 147 152 152 156 146 144 144 157 166 174 185 192 214 233 266 274
290 245 242 234 218 195 193 179 162 155 146 128 126 138 240 174 159 148 94 81 72 23 333 340 24 99 113 131 125 130 141 138 133 137 145 155 167 178 186 205 225 239 251 259
2 359 0 16 61 104 136 136 119 112 108 127 131 131 112 73 80 82 75 64 1 262 288 359 61 82 99 112 111 118 131 140 147 147 146 164 175 186 201 217 228 236 245 245
23 33 49 55 52 53 76 101 110 104 89 114 134 147 154 135 75 91 87 24 326 341 14 26 40 32 60 91 96 109 121 132 142 159 169 174 174 188 212 231 241 243 238 240
33 54 63 63 59 40 33 56 84 95 93 109 129 139 135 119 71 74 78 216 296 355 39 28 25 52 79 86 91 95 100 108 113 120 132 163 174 194 237 250 253 254 245 243
14 49 55 49 50 41 32 38 55 83 107 132 139 146 159 178 145 134 302 306 351 45 52 24 31 50 59 73 90 100 106 109 117 141 172 201 215 225 245 264 268 262 252 256
31 34 41 45 55 57 36 12 33 54 72 81 102 134 142 112 41 222 203 276 16 53 47 17 23 37 59 78 87 94 110 130 150 170 202 245 250 247 249 262 278 283 263 264
37 37 47 56 58 51 37 33 37 36 42 36 23 21 63 150 174 244 42 49 46 49 37 19 21 33 58 81 93 105 121 154 166 154 126 109 279 254 262 269 272 277 287 286
19 31 14 22 170 175 124 87 70 36 47 28 2 1 22 45 75 74 69 59 54 51 45 26 24 36 54 71 91 118 134 124 115 117 138 150 122 61 17 2 6 359 319 307
21 36 36 28 29 115 140 132 126 94 81 98 343 344 2 38 62 72 75 67 55 52 45 36 37 41 51 66 87 92 107 123 124 103 51 286 281 257 268 286 306 321 329 323
Height
1473 1468 1467 1466 1465 1465 1469 1472 1477 1471 1469 1462 1459 1458 1458 1458 1458 1459 1460 1461 1462 1463 1465 1466 1468 1470 1472 1473 1475 1476 1478 1480 1482 1485 1487 1489 1491 1493 1494 1496 1497 1499 1500 1501
1472 1466 1465 1464 1461 1461 1461 1463 1464 1464 1464 1457 1457 1457 1457 1457 1458 1458 1458 1459 1460 1461 1463 1464 1466 1468 1469 1471 1472 1474 1475 1477 1479 1481 1484 1485 1487 1489 1490 1492 1493 1494 1495 1496
1480 1472 1465 1470 1461 1459 1460 1459 1460 1463 1460 1456 1456 1456 1455 1456 1456 1456 1457 1458 1459 1460 1461 1463 1464 1466 1467 1468 1470 1472 1473 1475 1476 1478 1479 1481 1483 1485 1486 1487 1489 1490 1491 1492
1484 1477 1480 1467 1454 1454 1456 1457 1456 1455 1454 1454 1453 1453 1454 1454 1455 1455 1456 1456 1457 1458 1459 1461 1462 1464 1465 1467 1468 1469 1470 1472 1474 1474 1476 1478 1479 1480 1482 1484 1484 1485 1487 1487
1487 1485 1475 1462 1454 1455 1457 1458 1454 1454 1453 1453 1453 1453 1454 1454 1455 1455 1455 1455 1456 1457 1458 1459 1460 1462 1463 1465 1466 1468 1468 1469 1470 1472 1474 1475 1476 1477 1478 1480 1481 1482 1483 1484
1484 1481 1480 1464 1453 1451 1454 1459 1453 1452 1452 1453 1453 1458 1456 1453 1454 1454 1454 1455 1456 1456 1457 1458 1459 1461 1462 1462 1464 1465 1466 1467 1468 1469 1471 1472 1473 1475 1476 1476 1477 1478 1479 1480
1481 1479 1470 1457 1452 1450 1463 1459 1452 1451 1451 1452 1453 1454 1453 1452 1453 1453 1453 1454 1455 1455 1456 1457 1458 1459 1460 1460 1462 1463 1464 1465 1467 1468 1469 1469 1471 1472 1473 1474 1474 1475 1476 1477
1479 1479 1472 1454 1452 1455 1455 1450 1450 1450 1450 1451 1451 1451 1451 1451 1451 1451 1452 1453 1453 1454 1454 1455 1456 1457 1457 1459 1460 1461 1462 1463 1465 1466 1466 1467 1468 1469 1469 1470 1471 1472 1473 1473
1470 1467 1457 1453 1452 1451 1450 1449 1449 1449 1449 1449 1449 1449 1450 1450 1451 1451 1451 1451 1452 1453 1453 1454 1455 1455 1456 1457 1458 1459 1461 1462 1463 1463 1464 1465 1465 1466 1467 1468 1469 1469 1470 1470
1464 1458 1454 1452 1450 1449 1449 1448 1447 1447 1447 1448 1448 1448 1448 1449 1450 1450 1450 1450 1451 1451 1451 1452 1453 1454 1455 1456 1456 1457 1459 1460 1461 1461 1462 1462 1463 1463 1464 1465 1465 1466 1466 1466
1461 1456 1452 1450 1449 1448 1447 1446 1446 1446 1446 1446 1446 1446 1447 1448 1448 1448 1449 1449 1450 1450 1450 1451 1451 1452 1453 1454 1454 1455 1456 1457 1458 1459 1460 1460 1461 1462 1462 1463 1463 1463 1463 1464
1458 1453 1452 1449 1448 1447 1446 1444 1443 1443 1444 1445 1445 1445 1446 1446 1447 1447 1448 1448 1448 1448 1449 1449 1450 1450 1451 1452 1453 1453 1454 1455 1456 1457 1458 1458 1458 1459 1460 1461 1461 1461 1462 1462
1450 1449 1448 1447 1446 1444 1443 1442 1441 1442 1442 1442 1443 1443 1443 1444 1445 1446 1447 1447 1447 1448 1448 1448 1448 1449 1449 1450 1451 1451 1452 1453 1454 1455 1455 1456 1456 1457 1457 1458 1459 1459 1459 1459
1447 1447 1445 1444 1443 1441 1440 1439 1439 1439 1440 1440 1441 1441 1441 1442 1443 1444 1445 1446 1446 1446 1446 1446 1446 1447 1448 1448 1449 1449 1450 1451 1452 1453 1453 1454 1454 1454 1455 1455 1456 1456 1457 1457
1445 1444 1443 1441 1440 1439 1439 1438 1437 1437 1438 1438 1439 1439 1439 1440 1441 1442 1443 1444 1444 1444 1444 1444 1445 1445 1446 1446 1446 1447 1448 1449 1450 1451 1451 1451 1451 1452 1452 1453 1453 1454 1454 1454
1442 1441 1440 1439 1438 1438 1437 1437 1436 1436 1436 1437 1437 1438 1439 1439 1440 1441 1442 1442 1443 1443 1443 1443 1443 1444 1444 1445 1445 1445 1446 1447 1447 1448 1449 1449 1449 1449 1449 1450 1451 1451 1451 1452
1440 1438 1438 1437 1437 1437 1437 1436 1436 1435 1435 1436 1437 1438 1438 1439 1440 1440 1441 1441 1442 1442 1442 1442 1443 1443 1443 1444 1444 1444 1444 1444 1445 1445 1445 1446 1447 1447 1448 1448 1448 1449 1449 1450
1438 1437 1436 1436 1436 1436 1436 1435 1435 1434 1434 1435 1437 1437 1438 1438 1438 1439 1440 1440 1441 1441 1442 1442 1442 1442 1442 1442 1442 1442 1442 1442 1443 1443 1444 1444 1445 1446 1446 1445 1446 1446 1447 1447
1436 1435 1435 1435 1435 1435 1434 1434 1434 1434 1435 1436 1437 1437 1438 1438 1439 1440 1440 1440 1440 1441 1441 1441 1441 1441 1441 1441 1441 1441 1441 1441 1441 1442 1442 1442 1443 1444 1444 1444 1444 1444 1445 1445
1436 1435 1435 1434 1434 1434 1434 1434 1435 1435 1436 1436 1437 1437 1438 1439 1439 1440 1440 1440 1440 1441 1441 1441 1441 1440 1440 1440 1440 1440 1440 1440 1440 1440 1440 1441 1441 1441 1442 1442 1443 1443 1443 1442
1436 1435 1435 1434 1434 1434 1435 1435 1435 1435 1436 1437 1437 1438 1439 1439 1440 1440 1440 1440 1441 1441 1441 1441 1440 1440 1440 1440 1440 1439 1439 1439 1439 1439 1439 1439 1439 1440 1440 1441 1441 1440 1440 1440
1437 1436 1436 1435 1435 1435 1436 1436 1436 1436 1437 1438 1438 1439 1439 1440 1440 1441 1441 1441 1441 1441 1441 1441 1440 1440 1440 1439 1439 1439 1439 1438 1438 1438 1438 1438 1438 1438 1439 1439 1439 1438 1438 1437
1438 1437 1437 1437 1437 1437 1437 1437 1437 1437 1438 1439 1439 1440 1440 1440 1441 1441 1441 1442 1441 1441 1441 1441 1441 1440 1440 1439 1439 1439 1439 1438 1438 1438 1438 1438 1437 1437 1437 1437 1437 1436 1435 1435
1438 1438 1438 1438 1438 1438 1438 1438 1439 1439 1440 1440 1440 1441 1441 1441 1441 1441 1442 1442 1442 1441 1441 1441 1441 1440 1440 1439 1439 1439 1439 1438 1438 1438 1437 1437 1436 1436 1436 1435 1435 1434 1433 1433
1439 1439 1439 1439 1439 1439 1439 1440 1440 1440 1441 1441 1441 1441 1442 1442 1442 1441 1441 1441 1441 1441 1441 1441 1441 1440 1440 1439 1439 1439 1438 1438 1438 1437 1437 1436 1435 1435 1434 1434 1433 1432 1432 1431
1440 1440 1440 1440 1440 1440 1440 1441 1441 1441 1441 1441 1442 1442 1442 1442 1442 1442 1442 1442 1442 1441 1441 1441 1441 1440 1440 1439 1438 1438 1438 1437 1437 1437 1436 1435 1435 1434 1433 1432 1432 1431 1430 1430
1441 1441 1440 1440 1440 1441 1441 1442 1442 1442 1442 1442 1442 1443 1443 1443 1443 1443 1443 1442 1442 1442 1442 1441 1441 1440 1439 1439 1438 1438 1437 1437 1436 1436 1436 1435 1434 1434 1433 1432 1431 1430 1429 1428